| time (UTC) | temp F | wind direction | speed MPH | gust MPH | rain 1hr in | rain 24hr in | rain mn in | humidity % | barometer mb |
| 20260504130424 | 56 | 131 | 2.0 | 7.0 | 0.00 | 0.00 | 0.00 | 67 | 1015.9 |
| 20260504110311 | 45 | 90 | 1.0 | 2.0 | 0.00 | 0.00 | 0.00 | 86 | 1015.7 |
| 20260504100229 | 45 | 124 | 1.0 | 3.0 | 0.00 | 0.00 | 0.00 | 82 | 1015.6 |
| 20260504081622 | 45 | 101 | 1.0 | 1.0 | 0.00 | 0.00 | 0.00 | 79 | 1016.3 |
| 20260504081118 | 45 | 93 | 1.0 | 2.0 | 0.00 | 0.00 | 0.00 | 80 | 1016.2 |
| 20260504080615 | 45 | 94 | 1.0 | 2.0 | 0.00 | 0.00 | 0.00 | 79 | 1016.1 |
| 20260504080111 | 45 | 90 | 1.0 | 2.0 | 0.00 | 0.00 | 0.00 | 79 | 1016.3 |
| 20260504050427 | 48 | 96 | 2.0 | 2.0 | 0.00 | 0.00 | 0.00 | 85 | 1017.5 |
| 20260504045919 | 49 | 93 | 1.0 | 2.0 | 0.00 | 0.00 | 0.00 | 82 | 1017.9 |
| 20260504045414 | 49 | 94 | 0.0 | 1.0 | 0.00 | 0.00 | 0.00 | 81 | 1018.0 |
| 20260504044911 | 50 | 106 | 0.0 | 1.0 | 0.00 | 0.00 | 0.00 | 76 | 1018.0 |
| 20260504044408 | 48 | 136 | 1.0 | 1.0 | 0.00 | 0.00 | 0.00 | 79 | 1017.9 |
| 20260504043906 | 48 | 91 | 2.0 | 3.0 | 0.00 | 0.00 | 0.00 | 83 | 1017.7 |
| 20260504043402 | 49 | 83 | 0.0 | 2.0 | 0.00 | 0.00 | 0.00 | 82 | 1018.0 |
| 20260504042900 | 49 | 91 | 2.0 | 2.0 | 0.00 | 0.00 | 0.00 | 81 | 1018.0 |
| 20260504042356 | 48 | 84 | 0.0 | 0.0 | 0.00 | 0.00 | 0.00 | 80 | 1017.9 |
| 20260504041852 | 49 | 84 | 0.0 | 0.0 | 0.00 | 0.00 | 0.00 | 81 | 1018.0 |
| 20260504041348 | 49 | 84 | 0.0 | 1.0 | 0.00 | 0.00 | 0.00 | 80 | 1017.7 |
| 20260504040845 | 49 | 84 | 0.0 | 0.0 | 0.00 | 0.00 | 0.00 | 79 | 1018.1 |
| 20260504040343 | 49 | 84 | 0.0 | 0.0 | 0.00 | 0.00 | 0.00 | 78 | 1018.3 |
| 20260504035838 | 49 | 85 | 0.0 | 0.0 | 0.00 | 0.00 | 0.00 | 76 | 1018.2 |
| 20260504035337 | 49 | 84 | 0.0 | 0.0 | 0.00 | 0.00 | 0.00 | 77 | 1018.0 |
| 20260504034833 | 49 | 86 | 2.0 | 2.0 | 0.00 | 0.00 | 0.00 | 78 | 1017.7 |
| 20260504034330 | 49 | 94 | 0.0 | 1.0 | 0.00 | 0.00 | 0.00 | 78 | 1018.0 |
| 20260504033827 | 49 | 86 | 0.0 | 1.0 | 0.00 | 0.00 | 0.00 | 73 | 1018.0 |
| 20260504033325 | 49 | 103 | 0.0 | 1.0 | 0.00 | 0.00 | 0.00 | 71 | 1017.9 |
| 20260504032821 | 49 | 83 | 0.0 | 1.0 | 0.00 | 0.00 | 0.00 | 78 | 1017.4 |
| 20260504032319 | 49 | 87 | 1.0 | 2.0 | 0.00 | 0.00 | 0.00 | 76 | 1017.7 |
| 20260504031815 | 49 | 110 | 1.0 | 1.0 | 0.00 | 0.00 | 0.00 | 77 | 1017.7 |
| 20260504031313 | 49 | 84 | 0.0 | 2.0 | 0.00 | 0.00 | 0.00 | 77 | 1017.9 |
| 20260504030809 | 49 | 85 | 1.0 | 2.0 | 0.00 | 0.00 | 0.00 | 77 | 1018.2 |
| 20260504030306 | 49 | 99 | 0.0 | 0.0 | 0.00 | 0.00 | 0.00 | 76 | 1018.1 |
| 20260504025802 | 49 | 96 | 0.0 | 0.0 | 0.00 | 0.00 | 0.00 | 75 | 1018.0 |
| 20260504025259 | 49 | 95 | 0.0 | 0.0 | 0.00 | 0.00 | 0.00 | 74 | 1018.0 |
| 20260504024756 | 49 | 84 | 0.0 | 1.0 | 0.00 | 0.00 | 0.00 | 75 | 1018.0 |
| 20260504024252 | 49 | 90 | 1.0 | 2.0 | 0.00 | 0.00 | 0.00 | 75 | 1018.1 |
| 20260504023749 | 49 | 93 | 0.0 | 0.0 | 0.00 | 0.00 | 0.00 | 77 | 1017.9 |
| 20260504023246 | 50 | 93 | 0.0 | 0.0 | 0.00 | 0.00 | 0.00 | 72 | 1017.6 |
| 20260504022742 | 50 | 93 | 0.0 | 0.0 | 0.00 | 0.00 | 0.00 | 70 | 1017.9 |
| 20260504022238 | 50 | 94 | 0.0 | 0.0 | 0.00 | 0.00 | 0.00 | 70 | 1017.7 |
| 20260504021735 | 50 | 93 | 0.0 | 0.0 | 0.00 | 0.00 | 0.00 | 70 | 1017.7 |
| 20260504021232 | 50 | 95 | 0.0 | 0.0 | 0.00 | 0.00 | 0.00 | 72 | 1017.5 |
| 20260504020729 | 50 | 85 | 0.0 | 0.0 | 0.00 | 0.00 | 0.00 | 71 | 1017.3 |
| 20260504020226 | 50 | 85 | 0.0 | 0.0 | 0.00 | 0.00 | 0.00 | 68 | 1017.5 |
| 20260504015722 | 50 | 88 | 0.0 | 0.0 | 0.00 | 0.00 | 0.00 | 74 | 1017.3 |
| 20260504015219 | 50 | 78 | 2.0 | 2.0 | 0.00 | 0.00 | 0.00 | 74 | 1017.2 |
| 20260504014714 | 50 | 87 | 2.0 | 2.0 | 0.00 | 0.00 | 0.00 | 69 | 1017.2 |
| 20260504014211 | 50 | 80 | 1.0 | 2.0 | 0.00 | 0.00 | 0.00 | 69 | 1017.1 |
| 20260504013709 | 51 | 82 | 0.0 | 2.0 | 0.00 | 0.00 | 0.00 | 70 | 1017.1 |
| 20260504013206 | 51 | 80 | 1.0 | 1.0 | 0.00 | 0.00 | 0.00 | 66 | 1017.2 |
| 20260504012703 | 51 | 80 | 1.0 | 1.0 | 0.00 | 0.00 | 0.00 | 69 | 1017.3 |
| 20260504012201 | 51 | 87 | 1.0 | 1.0 | 0.00 | 0.00 | 0.00 | 67 | 1017.1 |
| 20260504011658 | 50 | 84 | 1.0 | 1.0 | 0.00 | 0.00 | 0.00 | 67 | 1017.1 |
| 20260504011154 | 51 | 83 | 1.0 | 2.0 | 0.00 | 0.00 | 0.00 | 71 | 1017.4 |
| 20260504010650 | 51 | 93 | 1.0 | 2.0 | 0.00 | 0.00 | 0.00 | 64 | 1017.4 |
| 20260504010145 | 51 | 91 | 1.0 | 1.0 | 0.00 | 0.00 | 0.00 | 62 | 1017.3 |
| 20260504005643 | 52 | 93 | 1.0 | 2.0 | 0.00 | 0.00 | 0.00 | 61 | 1017.3 |
| 20260504005139 | 52 | 92 | 0.0 | 0.0 | 0.00 | 0.00 | 0.00 | 63 | 1017.4 |
| 20260504004638 | 53 | 92 | 0.0 | 0.0 | 0.00 | 0.00 | 0.00 | 61 | 1017.2 |
| 20260504004134 | 52 | 97 | 0.0 | 0.0 | 0.00 | 0.00 | 0.00 | 57 | 1017.4 |
| 20260504003631 | 53 | 97 | 0.0 | 0.0 | 0.00 | 0.00 | 0.00 | 57 | 1017.3 |
| 20260504003127 | 53 | 97 | 0.0 | 0.0 | 0.00 | 0.00 | 0.00 | 55 | 1017.2 |
| 20260504002624 | 54 | 97 | 0.0 | 0.0 | 0.00 | 0.00 | 0.00 | 54 | 1017.0 |
| 20260504002122 | 54 | 99 | 0.0 | 0.0 | 0.00 | 0.00 | 0.00 | 53 | 1017.3 |
| 20260504001620 | 54 | 99 | 0.0 | 0.0 | 0.00 | 0.00 | 0.00 | 53 | 1017.2 |
| 20260504001115 | 55 | 99 | 0.0 | 0.0 | 0.00 | 0.00 | 0.00 | 50 | 1017.2 |
| 20260504000613 | 55 | 185 | 0.0 | 0.0 | 0.00 | 0.00 | 0.00 | 57 | 1017.3 |
| 20260504000110 | 55 | 186 | 0.0 | 1.0 | 0.00 | 0.00 | 0.00 | 48 | 1017.3 |
| 20260503235608 | 56 | 170 | 0.0 | 1.0 | 0.00 | 0.00 | 0.00 | 46 | 1017.3 |
| 20260503235105 | 56 | 171 | 0.0 | 1.0 | 0.00 | 0.00 | 0.00 | 46 | 1017.0 |
| 20260503234603 | 56 | 169 | 0.0 | 0.0 | 0.00 | 0.00 | 0.00 | 44 | 1017.1 |
| 20260503234100 | 57 | 199 | 0.0 | 0.0 | 0.00 | 0.00 | 0.00 | 48 | 1017.2 |
| 20260503233557 | 58 | 188 | 0.0 | 0.0 | 0.00 | 0.00 | 0.00 | 45 | 1016.9 |
| 20260503233053 | 58 | 165 | 1.0 | 2.0 | 0.00 | 0.00 | 0.00 | 45 | 1017.2 |
| 20260503232550 | 59 | 174 | 1.0 | 1.0 | 0.00 | 0.00 | 0.00 | 44 | 1017.6 |
| 20260503232047 | 60 | 199 | 1.0 | 2.0 | 0.00 | 0.00 | 0.00 | 46 | 1017.4 |
| 20260503231545 | 60 | 187 | 1.0 | 2.0 | 0.00 | 0.00 | 0.00 | 47 | 1017.2 |
| 20260503231041 | 61 | 200 | 1.0 | 2.0 | 0.00 | 0.00 | 0.00 | 36 | 1017.4 |
| 20260503230538 | 60 | 117 | 1.0 | 1.0 | 0.00 | 0.00 | 0.00 | 45 | 1017.3 |
| 20260503230036 | 61 | 192 | 2.0 | 2.0 | 0.00 | 0.00 | 0.00 | 46 | 1017.7 |
| 20260503225532 | 61 | 8 | 2.0 | 8.0 | 0.00 | 0.00 | 0.00 | 34 | 1017.6 |
| 20260503225027 | 62 | 19 | 3.0 | 3.0 | 0.00 | 0.00 | 0.00 | 35 | 1017.5 |
| 20260503224525 | 62 | 302 | 1.0 | 8.0 | 0.00 | 0.00 | 0.00 | 32 | 1017.6 |
| 20260503224023 | 62 | 23 | 2.0 | 4.0 | 0.00 | 0.00 | 0.00 | 34 | 1017.9 |
| 20260503223520 | 62 | 46 | 1.0 | 3.0 | 0.00 | 0.00 | 0.00 | 35 | 1017.9 |
| 20260503223016 | 63 | 82 | 5.0 | 6.0 | 0.00 | 0.00 | 0.00 | 38 | 1018.0 |
| 20260503222514 | 62 | 9 | 2.0 | 4.0 | 0.00 | 0.00 | 0.00 | 32 | 1018.1 |
| 20260503222012 | 64 | 41 | 2.0 | 7.0 | 0.00 | 0.00 | 0.00 | 32 | 1017.9 |
| 20260503221510 | 64 | 55 | 0.0 | 2.0 | 0.00 | 0.00 | 0.00 | 32 | 1017.9 |
| 20260503221007 | 64 | 338 | 1.0 | 4.0 | 0.00 | 0.00 | 0.00 | 34 | 1017.9 |
| 20260503220503 | 65 | 318 | 4.0 | 6.0 | 0.00 | 0.00 | 0.00 | 32 | 1017.7 |
| 20260503220000 | 63 | 177 | 2.0 | 4.0 | 0.00 | 0.00 | 0.00 | 36 | 1017.7 |
| 20260503215457 | 64 | 2 | 1.0 | 3.0 | 0.00 | 0.00 | 0.00 | 33 | 1017.9 |
| 20260503214954 | 63 | 209 | 0.0 | 3.0 | 0.00 | 0.00 | 0.00 | 34 | 1018.1 |
| 20260503214452 | 64 | 71 | 2.0 | 3.0 | 0.00 | 0.00 | 0.00 | 31 | 1018.0 |
| 20260503213949 | 64 | 272 | 1.0 | 6.0 | 0.00 | 0.00 | 0.00 | 31 | 1018.1 |
| 20260503213448 | 63 | 208 | 1.0 | 2.0 | 0.00 | 0.00 | 0.00 | 34 | 1018.1 |
| 20260503212943 | 63 | 175 | 2.0 | 7.0 | 0.00 | 0.00 | 0.00 | 32 | 1018.1 |
| 20260503212441 | 63 | 26 | 2.0 | 8.0 | 0.00 | 0.00 | 0.00 | 34 | 1018.1 |
| 20260503211938 | 62 | 349 | 6.0 | 9.0 | 0.00 | 0.00 | 0.00 | 33 | 1017.9 |
| 20260503211435 | 63 | 353 | 9.0 | 14.0 | 0.00 | 0.00 | 0.00 | 31 | 1018.2 |
| 20260503210930 | 63 | 240 | 6.0 | 8.0 | 0.00 | 0.00 | 0.00 | 34 | 1018.3 |
| 20260503210427 | 63 | 27 | 1.0 | 7.0 | 0.00 | 0.00 | 0.00 | 33 | 1018.2 |
| 20260503205922 | 62 | 96 | 4.0 | 9.0 | 0.00 | 0.00 | 0.00 | 33 | 1018.1 |
| 20260503205420 | 62 | 347 | 6.0 | 10.0 | 0.00 | 0.00 | 0.00 | 37 | 1018.4 |
| 20260503204916 | 63 | 23 | 3.0 | 8.0 | 0.00 | 0.00 | 0.00 | 31 | 1018.3 |
| 20260503204413 | 63 | 301 | 3.0 | 8.0 | 0.00 | 0.00 | 0.00 | 41 | 1018.4 |
| 20260503203910 | 64 | 334 | 2.0 | 3.0 | 0.00 | 0.00 | 0.00 | 33 | 1018.5 |
| 20260503203408 | 62 | 293 | 3.0 | 4.0 | 0.00 | 0.00 | 0.00 | 32 | 1018.6 |
| 20260503202904 | 63 | 1 | 2.0 | 3.0 | 0.00 | 0.00 | 0.00 | 32 | 1018.6 |
| 20260503202403 | 62 | 62 | 2.0 | 7.0 | 0.00 | 0.00 | 0.00 | 37 | 1018.7 |
| 20260503201901 | 62 | 178 | 3.0 | 6.0 | 0.00 | 0.00 | 0.00 | 35 | 1018.9 |
| 20260503201357 | 61 | 29 | 3.0 | 9.0 | 0.00 | 0.00 | 0.00 | 31 | 1019.0 |
| 20260503200855 | 62 | 34 | 4.0 | 10.0 | 0.00 | 0.00 | 0.00 | 32 | 1019.0 |
| 20260503200350 | 61 | 60 | 2.0 | 3.0 | 0.00 | 0.00 | 0.00 | 38 | 1019.1 |
| 20260503195848 | 61 | 53 | 1.0 | 4.0 | 0.00 | 0.00 | 0.00 | 33 | 1019.4 |
| 20260503195344 | 61 | 106 | 0.0 | 8.0 | 0.00 | 0.00 | 0.00 | 33 | 1019.2 |
| 20260503194842 | 61 | 18 | 5.0 | 8.0 | 0.00 | 0.00 | 0.00 | 33 | 1019.4 |
| 20260503194338 | 61 | 354 | 4.0 | 7.0 | 0.00 | 0.00 | 0.00 | 34 | 1019.3 |
| 20260503193834 | 60 | 73 | 2.0 | 8.0 | 0.00 | 0.00 | 0.00 | 34 | 1019.5 |
| 20260503193330 | 60 | 26 | 1.0 | 4.0 | 0.00 | 0.00 | 0.00 | 32 | 1019.7 |
| 20260503192826 | 61 | 262 | 2.0 | 4.0 | 0.00 | 0.00 | 0.00 | 33 | 1019.8 |
| 20260503192322 | 61 | 18 | 2.0 | 4.0 | 0.00 | 0.00 | 0.00 | 36 | 1019.7 |
| 20260503191818 | 61 | 340 | 1.0 | 4.0 | 0.00 | 0.00 | 0.00 | 40 | 1019.8 |
| 20260503191315 | 61 | 277 | 1.0 | 3.0 | 0.00 | 0.00 | 0.00 | 33 | 1019.9 |
| 20260503190812 | 60 | 113 | 3.0 | 4.0 | 0.00 | 0.00 | 0.00 | 34 | 1020.0 |
| 20260503190309 | 61 | 194 | 4.0 | 9.0 | 0.00 | 0.00 | 0.00 | 36 | 1020.2 |
| 20260503185806 | 60 | 21 | 2.0 | 4.0 | 0.00 | 0.00 | 0.00 | 35 | 1020.2 |
| 20260503185301 | 60 | 21 | 3.0 | 7.0 | 0.00 | 0.00 | 0.00 | 40 | 1020.5 |
| 20260503184801 | 59 | 72 | 0.0 | 4.0 | 0.00 | 0.00 | 0.00 | 33 | 1020.4 |
| 20260503184258 | 59 | 112 | 1.0 | 4.0 | 0.00 | 0.00 | 0.00 | 35 | 1020.7 |
| 20260503183754 | 60 | 285 | 6.0 | 9.0 | 0.00 | 0.00 | 0.00 | 35 | 1020.7 |
| 20260503183252 | 60 | 168 | 3.0 | 6.0 | 0.00 | 0.00 | 0.00 | 42 | 1020.9 |
| 20260503182749 | 59 | 253 | 4.0 | 6.0 | 0.00 | 0.00 | 0.00 | 34 | 1020.9 |
| 20260503182248 | 59 | 41 | 2.0 | 6.0 | 0.00 | 0.00 | 0.00 | 41 | 1021.0 |
| 20260503181744 | 59 | 24 | 4.0 | 8.0 | 0.00 | 0.00 | 0.00 | 37 | 1020.9 |
| 20260503181241 | 58 | 267 | 1.0 | 3.0 | 0.00 | 0.00 | 0.00 | 39 | 1021.1 |
| 20260503180737 | 58 | 49 | 2.0 | 3.0 | 0.00 | 0.00 | 0.00 | 36 | 1021.2 |
| 20260503180236 | 58 | 254 | 3.0 | 4.0 | 0.00 | 0.00 | 0.00 | 36 | 1021.3 |
| 20260503175732 | 58 | 209 | 1.0 | 6.0 | 0.00 | 0.00 | 0.00 | 37 | 1021.3 |
| 20260503175230 | 57 | 182 | 4.0 | 9.0 | 0.00 | 0.00 | 0.00 | 36 | 1021.5 |
| 20260503174726 | 58 | 23 | 4.0 | 6.0 | 0.00 | 0.00 | 0.00 | 43 | 1021.6 |
| 20260503174225 | 58 | 236 | 0.0 | 3.0 | 0.00 | 0.00 | 0.00 | 39 | 1021.7 |
| 20260503173724 | 58 | 281 | 6.0 | 7.0 | 0.00 | 0.00 | 0.00 | 37 | 1021.7 |
| 20260503173220 | 57 | 66 | 3.0 | 4.0 | 0.00 | 0.00 | 0.00 | 37 | 1021.6 |
| 20260503172717 | 57 | 32 | 4.0 | 6.0 | 0.00 | 0.00 | 0.00 | 35 | 1021.8 |
| 20260503172215 | 56 | 324 | 1.0 | 7.0 | 0.00 | 0.00 | 0.00 | 35 | 1022.0 |
| 20260503171711 | 57 | 63 | 5.0 | 6.0 | 0.00 | 0.00 | 0.00 | 37 | 1021.8 |
| 20260503171208 | 57 | 25 | 1.0 | 6.0 | 0.00 | 0.00 | 0.00 | 37 | 1022.1 |
| 20260503170705 | 57 | 298 | 5.0 | 7.0 | 0.00 | 0.00 | 0.00 | 37 | 1022.1 |
| 20260503170202 | 57 | 36 | 3.0 | 7.0 | 0.00 | 0.00 | 0.00 | 35 | 1022.1 |
| 20260503160124 | 55 | 16 | 4.0 | 8.0 | 0.00 | 0.00 | 0.00 | 42 | 1023.0 |
| 20260503150553 | 53 | 150 | 4.0 | 7.0 | 0.00 | 0.00 | 0.00 | 46 | 1023.3 |